Location: Alacska
(48.2167°N, 20.6500°E)
Time: 09:16:32
(UTC+00:00)

Daily predictions for brighter satellites

Satellite Brightness Start Highest point End
(mag) Time Altitude Azimuth Time Altitude Azimuth Time Altitude Azimuth
CZ-4C R/B 4.1 15:55:03 10° NW 15:59:33 21° N 16:04:40 10° NE
AQUARIUS 4.2 15:55:06 10° SSE 15:59:36 80° ENE 16:04:08 10° NNW
CSL-04 DEB 4.4 15:55:51 10° NNE 15:59:50 88° WNW 16:03:45 10° SSW
ERBS 3.5 15:57:55 10° W 16:01:02 36° NNW 16:04:12 10° NE
SAR-Lupe-4 4.3 16:03:05 10° NNE 16:06:20 31° E 16:09:34 10° SSE
USA 305 3.8 16:02:21 10° WNW 16:06:24 37° N 16:10:25 10° ENE
Cosmos 1400 Rocket 4.5 16:04:35 10° ESE 16:06:57 15° E 16:09:19 10° NE
CZ-4B R/B 1.5 16:03:51 10° NNE 16:07:03 49° E 16:10:09 10° S
Cosmos 1758 Rocket 3.6 16:03:17 10° N 16:07:41 59° ENE 16:11:59 10° SSE
Cosmos 1726 Rocket 4.5 16:04:44 10° SE 16:08:23 27° E 16:12:04 10° NNE
Okean-O 3.6 16:04:45 10° ESE 16:08:27 27° ENE 16:12:11 10° N
Cosmos 1943 Rocket 3.9 16:07:03 10° WSW 16:11:51 29° NW 16:16:39 10° NNE
USA 306 3.8 16:08:38 10° WNW 16:12:40 37° N 16:16:40 10° ENE
Cosmos 1818 3.9 16:07:18 10° SW 16:12:43 70° NW 16:18:11 10° NE
CZ-4B R/B 3.9 16:09:46 10° S 16:15:20 63° WSW 16:20:52 10° NNW
Cosmos 2266 Rocket 4.1 16:10:31 10° N 16:16:44 89° W 16:23:03 10° S
Aureole 3 4.4 16:15:11 10° SE 16:17:06 15° E 16:18:57 10° NE
Cosmos 1331 Rocket 4.4 16:14:26 10° S 16:19:15 41° ESE 16:24:05 10° NE
Meteor 1-16 Rocket 4.4 16:15:13 10° SSW 16:20:54 80° WNW 16:26:26 10° N
ATLAS 5 CENTAUR R/B 3.2 16:18:04 10° W 16:21:50 30° NNW 16:26:06 10° NNE
Cosmos 1606 Rocket 3.8 16:18:27 10° SSE 16:22:37 46° E 16:26:50 10° NNE
SAR-Lupe-1 4.3 16:20:38 10° NNE 16:24:06 46° E 16:27:35 10° S
SKYMED 2 4.0 16:20:52 10° NNE 16:25:01 41° E 16:29:08 10° S
Cosmos 2228 3.1 16:23:04 10° S 16:27:12 54° E 16:31:22 10° NNE
CZ-2C R/B 3.8 16:22:31 10° SE 16:27:48 37° ENE 16:32:58 10° N
Cosmos 1953 3.9 16:25:17 10° SW 16:28:59 37° WNW 16:32:43 10° N
SL-4 R/B 2.0 16:25:58 10° W 16:29:28 58° NNW 16:32:26 15° ENE
Cosmos 292 Rocket 4.3 16:25:45 10° S 16:30:07 37° ESE 16:34:33 10° NE
Cosmos 2227 Rocket 2.9 16:25:14 10° NNW 16:30:20 33° NE 16:35:15 11° ESE
Cosmos 1908 3.8 16:27:30 10° SSW 16:31:18 62° WNW 16:35:09 10° N
ARGOS 4.3 16:28:11 10° ESE 16:32:23 24° ENE 16:36:36 10° N
ATLAS 2AS CENTAUR R/B 4.2 16:28:41 10° NW 16:35:04 26° N 16:40:27 12° ENE
USA 215 3.8 16:30:07 13° E 16:35:41 45° NNE 16:41:51 10° WNW
Cosmos 1346 Rocket 4.2 16:33:45 10° NNE 16:36:33 18° ENE 16:37:17 17° E
Meteor 2-16 Rocket 4.4 16:31:32 10° N 16:37:36 65° ENE 16:43:38 10° SSE
SeaSat 1 3.3 16:35:05 13° ESE 16:38:49 31° NE 16:43:09 10° NNW
Cosmos 2263 Rocket 4.2 16:38:28 10° N 16:40:32 12° NNE 16:42:32 10° NE
Cosmos 1892 3.7 16:38:42 10° NNE 16:42:00 26° ENE 16:44:14 16° ESE
Cosmos 968 Rocket 4.2 16:38:40 10° N 16:43:23 32° NE 16:46:53 16° ESE
Cosmos 1110 Rocket 3.9 16:39:32 10° SSW 16:44:46 74° ESE 16:50:00 10° NNE
CZ-2D R/B 3.2 16:41:12 10° SSE 16:44:58 64° ENE 16:48:45 10° N
CSL-04 Rocket 4.2 16:39:55 10° SE 16:44:59 38° ENE 16:50:03 10° N
Cosmos 1302 Rocket 4.5 16:42:53 10° S 16:47:43 39° ESE 16:52:36 10° NE
Cosmos 2058 Rocket 3.4 16:44:50 10° SSE 16:49:05 44° E 16:53:23 10° NNE
Cosmos 1953 Rocket 3.5 16:45:05 10° N 16:49:31 82° E 16:53:57 10° SSE
CZ-4 R/B 4.4 16:46:01 10° SSE 16:50:10 80° ENE 16:54:22 10° N
COSMOS 2487 4.4 16:47:32 10° NW 16:50:38 31° WSW 16:53:42 10° SSW
Cosmos 1697 Rocket 4.2 16:49:06 10° SE 16:51:02 15° ESE 16:51:02 15° ESE
USA 307 3.7 16:50:31 10° WNW 16:54:35 40° N 16:56:43 23° ENE
Cosmos 1300 2.6 16:51:57 10° S 16:55:45 82° E 16:59:35 10° N
FALCON 9 DEB 4.2 16:53:51 10° SSW 16:56:34 25° SE 16:56:48 25° SE
HJ-1C 4.3 16:57:03 28° ENE 16:57:03 28° ENE 16:59:46 10° N
Timation 2 Rocket 4.1 16:50:44 10° NNW 16:57:20 86° ENE 17:04:09 10° SSE
S3M 4.4 16:53:31 10° SSE 16:58:58 35° E 17:04:28 10° NNE
USA 308 3.6 16:55:17 10° WNW 16:59:22 41° N 17:01:16 26° ENE
GEOS 3 Rocket 3.6 16:55:36 12° SE 17:00:37 76° NE 17:06:02 10° NW
Helios 1A Rocket 2.9 16:57:41 10° SSE 17:01:50 85° W 17:05:58 10° NNW
BREEZE-M R/B 3.5 16:58:17 10° W 17:02:05 76° N 17:06:24 23° E
NOSS 2-2 (C) 4.4 16:58:18 10° NW 17:03:42 76° NE 17:10:40 12° SE
PSLV R/B 4.0 17:05:38 10° NNE 17:09:51 82° WNW 17:14:00 10° SSW
Cosmos 1939 Rocket 3.8 17:06:05 10° S 17:09:57 49° W 17:13:48 10° NNW
Cosmos 2369 Rocket 4.5 17:06:56 10° W 17:11:02 20° NW 17:15:11 10° N
Cosmos 2297 Rocket 2.1 17:05:23 10° NNW 17:11:04 71° ENE 17:15:53 15° SE
Cosmos 1825 4.1 17:08:32 10° NNE 17:09:40 16° NNE 17:09:40 16° NNE
COSMO-SKYMED 1 3.0 17:08:49 10° N 17:13:09 65° WNW 17:17:25 10° SSW
In-Cosmos 22 Rocket 4.0 17:09:34 10° N 17:14:57 79° ENE 17:20:22 10° SSE
Cosmos 1689 Rocket 3.2 17:13:11 10° N 17:15:57 42° WNW 17:18:42 10° SW
Cosmos 1408 3.5 17:13:51 10° N 17:16:13 31° NE 17:16:13 31° NE
Aureole 3 Rocket 2.9 17:14:44 10° S 17:18:27 87° E 17:23:32 10° N
FALCON 9 DEB 4.1 17:15:41 10° WNW 17:18:52 35° N 17:19:24 33° NNE
MOS 1 Rocket 3.4 17:14:51 10° NNE 17:19:20 50° E 17:24:02 10° S
H-2A R/B 2.1 17:14:08 10° SSE 17:19:28 66° ENE 17:24:54 10° N
Cosmos 2058 3.0 17:17:20 10° N 17:21:20 50° ENE 17:21:44 48° E
CSL-04 Debris 4.1 17:16:01 10° SSE 17:21:25 74° ENE 17:26:54 10° NNW
SL-08 RB Rocket 4.3 17:25:04 36° NE 17:25:04 36° NE 17:28:44 10° N
Cosmos 1340 2.8 17:22:49 10° NNW 17:26:36 71° W 17:30:21 10° S
CZ-4 R/B 2.0 17:23:46 10° S 17:27:37 55° W 17:31:27 10° NNW
Cosmos 1553 Rocket 3.9 17:23:46 10° S 17:30:09 82° E 17:36:28 10° N
YAOGAN 1 3.0 17:27:05 10° S 17:31:22 64° WSW 17:35:41 10° NNW
Cosmos 1076 Rocket 3.9 17:30:53 10° N 17:34:10 43° NE 17:34:10 43° NE
SJ-11-01 4.2 17:31:09 10° SSE 17:35:49 89° W 17:40:31 10° NNW
Cosmos 2219 3.4 17:30:42 10° NNW 17:36:27 75° WSW 17:41:21 15° SSE
Lacrosse 5 3.2 17:32:44 10° WNW 17:37:14 30° N 17:38:57 25° NNE
ERBS 4.4 17:35:35 10° NW 17:38:02 18° N 17:38:04 18° N
Ariane Rocket 3.6 17:38:38 37° NE 17:38:38 37° NE 17:42:45 10° N
Geosat 3.9 17:36:58 15° NNE 17:41:16 86° WNW 17:46:18 10° SSW
Cosmos 1400 Rocket 3.6 17:38:55 10° SSW 17:42:58 54° WNW 17:47:01 10° N
Okean-O 4.1 17:40:40 10° SSW 17:44:47 37° W 17:48:56 10° NNW
SL-08 ROCKET BODY 4.5 17:39:27 10° N 17:45:34 81° W 17:51:43 10° S
Cosmos 44 3.4 17:41:14 10° SW 17:45:45 67° NW 17:47:38 35° NNE
USA 305 3.2 17:42:45 10° WNW 17:46:51 55° N 17:46:51 55° N
Cosmos 2082 3.7 17:41:40 10° NNW 17:47:24 64° ENE 17:48:24 55° ESE
CZ-4C R/B 3.9 17:44:50 10° NW 17:50:20 27° NNE 17:52:05 25° NE
USA 306 3.3 17:48:59 10° WNW 17:52:49 55° N 17:52:49 55° N
Cosmos 1745 Rocket 4.0 17:48:05 10° N 17:54:22 80° W 18:00:41 10° S
Meteor 2-1 Rocket 4.0 17:56:22 10° S 18:01:53 88° E 18:07:27 10° NNE
Meteor 2-15 Rocket 4.3 17:56:17 10° S 18:02:27 89° E 18:08:39 10° N
NOSS 3-4 (A) 4.1 17:59:02 10° NW 18:05:33 47° NE 18:06:19 45° NE
NOSS 3-4 (C) 4.1 17:59:07 10° NW 18:05:39 46° NE 18:06:24 45° NE
ATLAS 5 CENTAUR R/B 4.1 18:05:23 10° NW 18:08:06 15° N 18:09:33 13° NNE
SL-4 R/B 3.4 18:05:48 10° WNW 18:08:01 33° NW 18:08:01 33° NW
IRS-1A Rocket 4.2 18:10:08 69° NE 18:10:08 69° NE 18:15:20 10° NNW
ARGOS 3.5 18:09:08 26° S 18:12:13 63° WSW 18:17:38 10° NNW
Cosmos 1346 Rocket 3.9 18:09:21 10° NNW 18:12:50 43° W 18:12:50 43° W
Cosmos 2227 Rocket 2.9 18:09:10 10° NW 18:14:36 50° WSW 18:17:08 29° SSW
NOSS 3-3 (A) 4.4 18:10:09 10° SSW 18:14:04 43° S 18:14:04 43° S
NOSS 3-3 (C) 4.4 18:10:14 10° SSW 18:14:12 43° S 18:14:12 43° S
SeaSat 1 3.2 18:14:54 40° SSW 18:16:10 49° WSW 18:20:59 10° NW
Meteor 2-10 Rocket 3.9 18:11:01 10° SSW 18:16:19 62° WNW 18:21:28 10° N
USA 215 3.1 18:17:28 69° E 18:18:18 81° NNE 18:24:53 10° NW
MOS 1 4.4 18:23:07 66° N 18:23:07 66° N 18:28:01 10° NNW
Cosmos 1656 4.1 18:18:38 10° SW 18:24:07 59° WNW 18:26:21 35° N
Cosmos 1709 Rocket 4.0 18:18:11 10° N 18:24:35 82° W 18:25:51 60° S
Cosmos 2263 Rocket 3.4 18:20:47 10° NNW 18:24:14 31° N 18:24:14 31° N
ATLAS 2AS CENTAUR R/B 3.1 18:20:30 10° NW 18:27:53 50° NE 18:27:53 50° NE
Cosmos 1697 Rocket 3.9 18:30:08 10° SSW 18:32:53 30° SSW 18:32:53 30° SSW
Cosmos 2297 Rocket 4.4 18:50:26 10° NW 18:54:32 21° W 18:57:46 13° SW
H-2A R/B 4.4 18:55:25 10° SW 18:59:22 20° W 19:03:22 10° NW
Lacrosse 5 4.2 19:16:28 10° NW 19:18:09 20° NW 19:18:09 20° NW
CZ-4C R/B 3.9 19:33:17 10° NW 19:37:16 37° NNW 19:37:16 37° NNW
ATLAS 2AS CENTAUR R/B 4.4 20:11:50 10° NW 20:15:19 28° WNW 20:15:19 28° WNW
